Wind_Speed
43 40 38 37 38 45 58 87 77 61 70 81 72 75 80 76 69 65 64 66 58 57 58 58 59 55 54 52 45 38 35 33 28 22 18 14 10 10 9 9 11 12 14 16 19 22 26 27 30 32 35 38 42 44
69 60 50 58 81 66 76 66 54 79 75 73 71 71 70 67 61 61 57 58 53 57 56 57 59 55 55 51 44 41 37 33 31 29 24 20 18 15 16 17 17 19 21 23 24 28 31 33 35 38 40 43 45 46
64 63 63 49 54 46 57 65 63 60 65 69 71 67 62 58 54 54 50 52 53 59 54 57 58 55 52 51 47 43 40 35 33 31 29 26 23 22 22 23 23 25 27 28 29 32 35 38 40 42 44 44 43 43
53 53 50 49 51 55 59 61 70 64 61 62 60 56 53 51 49 45 45 48 50 51 54 55 54 52 50 49 47 46 40 37 36 36 33 30 28 28 27 29 29 30 32 33 34 35 40 40 42 43 43 43 41 42
56 56 54 57 58 62 62 63 64 60 55 53 50 48 46 45 46 40 41 44 45 48 48 47 49 49 47 46 45 44 41 40 39 37 34 33 32 32 33 34 34 35 36 36 38 40 40 42 42 40 40 42 44 45
53 57 56 56 54 53 54 53 51 49 47 46 45 43 43 43 44 42 35 37 39 42 42 46 47 46 46 45 43 41 39 38 38 36 36 36 35 37 37 38 39 38 39 40 40 40 39 39 41 42 44 44 45 47
55 55 53 52 50 48 46 45 45 44 43 43 43 42 41 39 37 35 31 33 35 36 40 39 41 44 42 40 39 38 37 37 37 38 38 38 40 40 41 42 42 39 38 39 37 37 41 41 45 46 46 48 49 49
47 47 46 46 44 42 42 43 42 41 40 40 39 39 38 36 33 31 33 35 34 34 34 38 41 41 41 40 40 38 38 38 39 40 39 40 41 42 45 43 40 37 36 37 38 41 43 45 47 48 49 49 48 47
38 35 37 37 39 37 38 38 37 38 37 36 35 35 36 37 34 44 43 36 33 37 38 33 37 39 40 40 38 38 40 41 41 40 41 41 41 43 40 39 37 37 39 42 43 44 45 47 48 47 46 45 45 47
29 33 31 32 31 32 34 33 32 32 33 36 37 37 36 38 40 42 32 47 46 26 31 32 32 32 33 35 37 39 40 40 41 42 42 44 45 42 36 35 38 40 43 45 46 47 45 44 42 41 43 46 48 52
31 29 28 26 25 25 27 28 29 30 34 35 34 35 37 37 34 43 32 39 45 44 40 36 36 35 35 36 36 39 41 43 44 45 46 46 44 35 35 36 39 43 46 45 43 41 40 40 43 44 47 51 54 57
27 26 29 28 32 23 23 22 24 23 27 37 34 37 38 36 35 44 47 43 40 39 37 37 34 32 32 34 38 40 42 41 44 42 41 42 39 36 37 38 40 43 43 41 40 41 43 44 47 51 54 56 57 58
24 25 27 33 29 23 25 22 22 25 27 25 29 33 34 33 33 35 41 38 33 28 27 26 26 28 29 30 31 32 35 37 38 41 41 40 37 38 40 42 42 41 40 40 41 43 46 50 53 55 56 56 56 53
22 24 28 30 31 29 22 28 19 18 21 28 24 32 32 27 24 27 29 23 20 21 23 23 24 25 26 29 32 34 38 39 42 42 42 40 38 38 39 40 39 41 42 44 46 49 52 54 55 54 52 49 50 54
24 21 23 20 23 26 25 25 25 18 16 25 29 33 30 29 24 23 21 21 21 21 23 25 27 29 30 34 36 38 41 43 42 40 36 36 37 38 38 42 45 46 47 49 54 55 54 54 51 48 50 53 56 59
19 20 19 19 19 21 27 28 23 24 25 28 28 31 27 27 31 29 28 27 27 29 31 33 34 35 36 37 39 40 40 40 37 37 37 37 38 42 46 45 47 49 52 56 55 55 52 50 50 53 55 59 61 63
16 17 16 13 11 16 28 29 28 26 24 24 27 28 30 29 29 30 34 35 35 35 36 37 36 34 36 36 36 36 37 35 35 37 40 45 45 43 44 48 53 57 57 56 52 50 51 53 55 58 62 63 64 64
18 18 18 18 19 17 19 28 25 28 28 26 25 28 33 36 37 38 36 33 33 31 29 29 29 27 31 32 33 33 35 39 43 48 48 49 50 52 53 53 53 51 49 50 51 53 55 58 61 63 63 64 63 60
20 21 21 21 20 21 22 23 22 23 24 26 26 30 33 33 33 32 32 32 32 33 34 34 35 35 37 40 42 44 46 48 48 48 48 48 48 47 47 47 48 50 52 54 56 59 61 63 62 62 60 58 55 55
23 24 24 25 27 28 25 36 34 33 32 35 36 35 39 39 40 41 40 41 41 41 41 41 41 42 43 43 43 43 43 44 44 43 43 44 45 46 48 50 53 56 59 60 61 62 61 59 56 53 52 52 53 55
7 9 12 17 19 23 24 24 27 29 30 32 34 34 34 35 35 35 35 34 34 34 34 35 35 36 37 37 38 38 39 40 41 43 45 47 50 52 55 58 60 61 60 59 58 55 51 49 48 50 52 52 53 55
2 4 5 7 8 9 12 14 15 16 19 20 21 23 23 24 25 27 27 29 29 29 30 31 33 34 35 37 39 41 43 46 48 50 53 55 57 59 59 60 58 54 51 48 45 43 44 48 51 51 53 57 60 62
7 8 9 11 12 13 12 14 16 17 18 19 20 22 23 24 26 27 29 31 32 34 35 37 40 42 44 45 48 50 52 53 54 56 57 57 55 52 47 47 47 43 41 41 45 51 52 52 53 57 60 63 64 64
11 12 11 14 18 21 22 23 23 24 25 26 26 28 29 31 33 35 37 38 40 42 44 46 47 49 51 52 54 55 56 57 57 56 45 39 43 43 45 47 45 46 48 51 52 53 55 57 59 62 64 65 66 68
18 19 20 19 20 21 23 28 30 31 32 32 33 34 34 36 38 39 41 43 45 46 48 50 51 52 53 53 52 51 47 42 32 29 35 42 47 47 50 47 47 51 54 55 57 58 60 61 63 65 66 67 68 67
24 24 24 24 25 24 25 25 26 27 29 31 32 33 35 36 37 38 39 39 37 36 35 34 32 31 30 29 28 29 30 32 34 35 39 42 46 47 47 47 49 52 56 57 58 60 63 64 65 67 67 66 65 63
28 27 27 26 24 23 22 22 23 23 24 24 24 23 23 22 21 22 22 21 21 21 23 24 25 26 26 26 25 25 26 29 31 34 37 41 44 46 49 52 55 55 56 57 59 60 62 63 64 64 64 62 60 58
24 23 20 17 14 14 13 14 14 13 13 13 15 16 17 18 19 20 21 22 24 26 27 29 29 29 29 29 30 32 34 36 38 41 43 45 47 48 49 50 52 54 57 58 60 61 62 63 63 61 58 56 54 54
11 10 10 10 11 11 11 11 11 13 15 17 19 21 23 25 27 28 30 31 34 35 36 36 37 37 38 39 40 41 42 43 44 45 46 47 48 49 52 55 58 61 63 65 65 65 64 63 60 57 54 53 52 52
8 9 10 11 12 14 17 19 21 22 24 25 27 29 31 32 34 36 37 39 39 40 40 41 42 43 43 42 42 42 42 44 45 47 49 51 54 58 61 64 67 68 69 69 68 65 62 59 56 54 53 52 50 47
13 15 18 19 22 24 26 28 29 30 31 32 34 35 36 36 37 37 37 38 40 41 41 42 42 42 41 41 42 43 45 48 51 54 57 60 63 66 68 69 69 69 66 64 61 59 57 55 53 51 49 47 44 42
22 25 26 28 28 29 30 30 30 31 32 33 34 34 34 34 35 35 33 31 30 29 29 30 32 36 39 42 45 49 52 55 59 62 65 66 67 67 66 63 57 52 49 48 47 46 45 44 43 41 40 40 40 40
24 26 27 27 29 31 32 34 34 33 32 31 31 30 29 28 27 26 25 26 29 32 35 39 42 45 48 52 54 57 60 61 62 62 62 61 59 55 51 48 47 47 47 46 45 44 42 40 40 40 40 40 40 39
Wind_Direction
119 124 126 134 141 145 150 144 156 164 165 170 172 182 181 182 182 186 195 195 192 193 196 194 197 199 199 196 195 198 205 210 213 221 230 237 248 267 272 275 277 273 274 275 277 280 280 283 285 284 288 289 292 292
103 97 110 124 128 129 154 156 160 163 167 172 179 175 176 180 183 188 194 194 193 196 197 199 200 200 201 203 203 202 209 215 220 227 234 245 253 263 275 275 276 276 280 280 281 283 285 286 291 294 294 293 292 292
110 123 130 126 134 137 145 160 168 156 163 164 170 174 175 178 184 191 194 196 196 199 198 202 201 203 204 205 204 205 212 219 227 234 240 246 254 264 271 272 274 277 280 282 283 285 288 293 294 292 292 292 292 292
115 113 123 125 122 132 147 156 163 158 159 166 164 167 172 179 182 189 193 197 200 200 202 203 204 205 209 209 207 210 213 221 229 237 243 250 256 263 268 272 274 279 280 281 286 286 288 290 288 292 290 290 290 291
120 126 132 129 136 135 137 142 148 152 153 157 162 167 172 177 180 189 193 197 201 202 204 204 205 208 211 213 214 215 218 225 232 239 248 254 259 264 267 269 275 279 281 284 286 286 286 286 288 289 287 289 290 292
125 122 125 127 130 134 137 140 145 148 151 157 163 168 174 179 183 189 191 197 199 204 204 205 205 210 214 216 219 223 225 231 237 244 251 257 262 265 269 274 277 280 283 285 285 287 287 287 287 288 290 291 292 295
117 120 123 127 130 132 135 140 145 150 155 160 164 169 175 178 180 185 190 190 195 198 204 203 205 210 214 219 224 229 232 238 242 248 253 258 263 268 271 274 278 281 282 282 283 283 284 287 289 290 291 294 297 298
125 128 131 134 137 140 145 150 154 157 161 163 167 171 174 176 175 180 178 185 189 198 204 206 208 210 215 219 224 230 235 240 246 251 256 260 264 268 272 276 279 279 280 281 281 282 284 287 289 290 293 295 296 298
123 128 133 133 136 138 143 150 152 156 162 165 169 172 175 177 174 170 167 174 186 199 204 208 209 215 220 222 227 232 239 244 249 253 258 261 265 268 274 275 277 278 278 279 279 281 284 287 289 291 293 295 296 297
129 125 128 133 138 143 145 150 152 158 165 171 172 173 177 176 171 170 183 188 197 187 193 204 209 212 218 225 230 237 243 248 252 254 257 262 268 271 273 276 278 280 282 284 286 289 290 291 292 294 296 296 297 298
138 139 150 142 144 144 151 151 157 162 165 167 167 167 169 171 180 193 198 198 202 209 213 218 221 225 225 226 234 239 244 249 253 256 260 263 266 270 274 277 280 280 281 283 286 287 288 290 293 294 294 295 296 298
150 155 147 165 162 164 157 157 154 156 166 165 168 167 171 185 183 187 199 207 209 211 217 219 223 227 230 236 241 245 249 251 254 258 261 264 268 271 278 279 274 273 278 280 282 284 288 291 292 293 294 296 298 298
175 167 168 169 169 154 171 173 178 181 176 177 185 188 193 198 198 207 203 198 210 219 227 228 230 233 235 236 239 244 249 254 260 263 267 270 276 280 277 274 275 277 280 282 284 286 288 290 292 293 294 296 298 303
163 160 164 177 182 172 187 176 179 186 195 197 196 189 187 211 217 220 224 225 222 217 218 220 225 231 236 240 246 254 260 262 264 266 270 280 278 275 275 277 279 281 282 282 284 287 290 292 293 296 299 301 303 306
181 185 185 184 195 191 191 185 199 213 206 203 200 205 208 210 216 212 214 221 227 234 239 238 244 252 255 258 263 267 269 270 269 272 276 276 274 275 275 277 281 282 283 286 291 293 295 296 298 298 299 302 306 308
186 192 196 203 206 205 202 199 204 208 215 219 214 209 216 232 229 228 230 233 246 244 240 252 263 265 263 265 270 269 266 266 272 275 277 278 278 278 282 282 280 278 281 290 293 294 294 295 295 298 301 305 307 307
187 184 185 188 199 208 208 210 214 214 216 227 231 227 231 236 239 240 246 246 245 251 258 261 263 262 263 262 264 268 271 272 272 271 270 274 278 276 271 270 277 285 288 289 290 291 291 293 297 300 303 304 304 304
216 212 209 208 216 211 207 213 222 223 231 236 237 240 246 247 246 243 244 249 252 251 254 261 261 257 256 256 258 258 255 255 257 265 268 270 272 275 280 283 284 285 286 287 288 290 293 296 298 300 301 301 302 302
234 225 222 219 215 219 224 227 226 230 234 235 236 235 239 243 245 247 251 252 250 251 255 257 257 254 249 250 253 256 259 263 268 272 277 280 280 281 281 282 282 283 284 287 290 293 294 296 297 298 299 300 300 301
248 249 247 243 242 248 245 230 232 230 232 236 238 239 241 240 241 243 243 245 248 252 252 253 257 260 263 267 270 274 276 277 277 278 278 279 280 280 280 281 283 285 287 289 290 292 293 295 296 297 298 299 300 301
266 264 260 255 256 258 256 256 255 256 254 248 246 248 251 253 255 257 259 261 264 267 268 270 271 272 272 273 273 275 276 277 278 278 278 278 279 281 282 283 284 285 287 289 291 293 293 293 295 297 300 302 303 304
305 289 284 276 271 268 261 259 256 256 256 256 256 259 260 262 264 265 267 267 269 270 270 271 272 273 274 275 276 277 277 277 277 278 279 280 281 282 282 284 286 289 290 290 291 294 296 297 300 301 303 304 305 306
287 274 269 270 268 266 260 258 259 259 260 258 259 260 260 261 262 264 264 265 267 268 270 272 274 275 275 276 276 277 278 279 280 281 282 283 285 286 287 289 294 295 296 296 294 294 296 297 298 301 302 304 304 305
318 319 304 282 269 262 256 254 255 255 256 257 258 260 262 264 265 266 268 269 270 271 272 273 273 275 276 277 278 279 279 279 279 280 281 265 264 267 275 286 289 290 290 289 291 294 295 297 299 301 302 303 304 304
297 295 295 294 299 295 280 269 265 263 264 265 266 268 270 271 272 273 275 275 277 278 279 279 280 280 280 280 280 279 279 279 277 265 254 255 261 271 276 280 286 291 292 292 292 294 297 299 301 301 302 303 304 305
298 296 294 294 293 291 284 278 273 271 269 269 269 270 272 273 275 276 278 280 281 281 283 286 290 292 293 293 292 286 274 264 261 265 269 271 273 278 284 288 289 288 290 293 296 298 299 300 300 301 302 303 304 306
299 297 297 294 287 281 276 274 274 274 274 275 276 275 275 276 276 276 276 278 284 287 291 294 296 297 297 296 294 290 283 277 277 277 279 280 282 284 285 287 290 292 294 296 299 301 302 302 302 302 303 304 305 306
299 294 287 282 274 271 271 277 280 278 278 276 277 280 283 283 285 287 288 290 290 290 291 291 290 289 289 288 287 286 285 284 284 283 283 284 284 286 287 290 294 296 299 301 303 303 304 304 303 303 303 303 304 305
281 271 263 260 263 272 277 279 280 282 284 286 287 287 286 285 284 284 285 286 287 287 288 288 288 288 287 287 289 289 288 287 285 283 282 282 284 286 290 293 296 299 301 302 302 302 302 301 301 301 302 303 304 305
259 259 267 279 287 292 294 294 292 290 288 288 287 286 285 285 285 287 287 286 286 286 287 287 286 286 287 287 287 285 283 282 280 281 282 285 288 291 294 296 298 300 300 300 299 298 298 298 299 299 300 302 303 304
299 300 299 298 297 297 297 295 293 290 289 288 288 286 286 286 286 286 287 287 288 288 289 288 287 286 285 284 284 283 282 282 283 285 288 290 292 294 296 298 299 300 300 299 299 298 298 298 298 298 299 300 300 301
297 297 296 295 295 294 293 291 290 289 288 287 287 287 286 286 286 288 289 290 292 293 294 295 294 291 289 287 286 286 286 287 288 290 291 293 294 296 297 298 299 302 304 306 307 306 305 302 301 300 299 300 301 302
297 298 297 296 296 296 295 293 291 290 289 290 290 288 287 288 288 288 288 290 293 295 296 295 294 292 290 289 288 288 289 290 292 293 294 295 296 297 297 298 300 301 302 303 305 306 306 306 304 302 302 302 302 301
Height
5295 5304 5312 5322 5335 5348 5365 5391 5415 5431 5448 5467 5487 5508 5526 5544 5562 5575 5589 5601 5612 5623 5632 5639 5649 5659 5667 5676 5683 5690 5695 5699 5703 5707 5709 5710 5712 5713 5713 5714 5714 5715 5715 5716 5715 5714 5714 5714 5712 5712 5709 5705 5702 5698
5315 5324 5335 5346 5359 5377 5394 5412 5425 5444 5461 5479 5499 5517 5533 5549 5564 5578 5589 5601 5610 5619 5629 5637 5645 5654 5661 5672 5680 5685 5690 5694 5698 5701 5704 5706 5707 5708 5709 5709 5709 5710 5710 5709 5710 5708 5705 5703 5702 5700 5697 5694 5690 5686
5347 5355 5364 5376 5390 5400 5417 5428 5443 5458 5476 5493 5512 5527 5541 5556 5569 5581 5590 5600 5606 5615 5626 5632 5641 5650 5658 5666 5674 5680 5683 5689 5693 5695 5698 5700 5702 5703 5704 5704 5704 5703 5702 5701 5701 5699 5695 5693 5692 5689 5686 5682 5679 5675
5371 5380 5389 5398 5411 5421 5434 5444 5460 5477 5492 5508 5520 5533 5547 5560 5571 5581 5589 5598 5605 5614 5622 5630 5639 5646 5655 5662 5668 5673 5679 5683 5686 5688 5691 5694 5696 5697 5697 5696 5696 5696 5694 5692 5692 5690 5686 5684 5680 5678 5674 5671 5668 5665
5397 5404 5412 5421 5430 5440 5452 5464 5477 5490 5503 5516 5528 5541 5552 5563 5573 5581 5589 5596 5605 5615 5621 5629 5636 5643 5651 5658 5663 5668 5673 5676 5679 5682 5684 5686 5688 5689 5688 5688 5688 5687 5684 5683 5681 5678 5677 5673 5670 5668 5664 5662 5658 5654
5418 5425 5433 5441 5450 5459 5469 5480 5492 5503 5513 5524 5535 5546 5556 5565 5574 5581 5590 5597 5604 5612 5619 5625 5633 5640 5647 5652 5658 5663 5667 5670 5673 5675 5677 5678 5679 5679 5679 5678 5677 5676 5675 5672 5670 5667 5664 5661 5658 5657 5653 5650 5646 5643
5440 5446 5452 5459 5467 5475 5483 5493 5503 5512 5521 5530 5540 5549 5558 5567 5575 5582 5590 5598 5604 5610 5617 5623 5628 5635 5642 5648 5653 5657 5660 5663 5666 5667 5669 5670 5670 5670 5668 5667 5667 5666 5664 5662 5660 5657 5652 5651 5647 5644 5641 5638 5634 5630
5457 5462 5467 5473 5480 5487 5495 5502 5510 5518 5526 5535 5543 5551 5559 5567 5576 5583 5590 5597 5603 5608 5613 5618 5623 5631 5636 5641 5645 5649 5652 5655 5657 5658 5660 5660 5660 5659 5658 5657 5656 5654 5652 5651 5649 5646 5642 5639 5635 5632 5629 5625 5622 5618
5472 5476 5480 5484 5490 5496 5502 5508 5515 5523 5531 5538 5546 5554 5560 5567 5576 5582 5588 5596 5602 5603 5608 5613 5620 5626 5630 5635 5639 5642 5644 5646 5648 5650 5650 5650 5650 5649 5648 5646 5645 5644 5642 5639 5637 5634 5631 5628 5624 5621 5617 5613 5609 5605
5483 5487 5492 5496 5501 5505 5510 5516 5522 5528 5533 5539 5546 5552 5560 5567 5575 5582 5587 5592 5594 5596 5603 5610 5615 5621 5625 5628 5632 5635 5635 5637 5638 5640 5639 5639 5640 5640 5639 5637 5634 5632 5628 5625 5623 5621 5618 5615 5612 5608 5605 5601 5596 5591
5492 5495 5500 5505 5509 5514 5518 5523 5528 5533 5538 5544 5549 5556 5563 5568 5574 5580 5585 5589 5592 5596 5600 5605 5610 5614 5618 5622 5624 5625 5626 5627 5627 5629 5628 5628 5630 5632 5629 5626 5624 5620 5617 5614 5611 5609 5606 5603 5600 5596 5592 5588 5583 5577
5498 5500 5504 5509 5514 5519 5524 5529 5534 5539 5544 5547 5552 5556 5562 5568 5572 5576 5580 5584 5587 5593 5597 5602 5607 5610 5613 5615 5616 5617 5617 5617 5617 5619 5619 5618 5622 5620 5617 5614 5611 5608 5606 5603 5600 5598 5595 5591 5588 5584 5579 5573 5568 5562
5502 5505 5509 5513 5516 5522 5527 5532 5537 5541 5546 5550 5553 5557 5561 5566 5569 5572 5577 5582 5587 5591 5595 5598 5601 5603 5604 5606 5607 5608 5607 5608 5609 5608 5608 5609 5609 5606 5603 5599 5597 5596 5594 5592 5589 5586 5582 5578 5574 5569 5564 5558 5552 5546
5506 5508 5511 5516 5520 5524 5528 5533 5538 5542 5547 5550 5554 5557 5560 5564 5568 5573 5577 5580 5583 5585 5588 5591 5593 5596 5597 5598 5598 5599 5598 5599 5597 5597 5598 5598 5595 5592 5590 5587 5585 5584 5581 5579 5576 5573 5568 5563 5558 5553 5547 5542 5536 5530
5507 5511 5514 5518 5521 5525 5527 5531 5536 5541 5544 5549 5553 5555 5558 5562 5566 5569 5572 5575 5577 5580 5583 5585 5587 5589 5589 5588 5589 5588 5587 5585 5585 5586 5587 5584 5582 5579 5577 5575 5573 5571 5568 5565 5561 5556 5552 5547 5542 5537 5532 5526 5520 5513
5506 5510 5513 5516 5519 5523 5527 5531 5534 5538 5541 5545 5548 5552 5555 5559 5562 5564 5567 5569 5572 5574 5576 5577 5577 5577 5577 5578 5577 5576 5576 5575 5575 5574 5573 5571 5569 5567 5565 5562 5559 5556 5552 5549 5544 5540 5536 5531 5527 5522 5516 5510 5504 5497
5506 5508 5511 5514 5517 5519 5523 5527 5531 5534 5537 5540 5542 5546 5549 5552 5555 5558 5560 5562 5563 5565 5566 5566 5566 5567 5567 5566 5566 5566 5565 5565 5564 5563 5561 5559 5557 5554 5552 5549 5545 5542 5538 5534 5530 5526 5522 5517 5512 5506 5500 5494 5488 5482
5502 5506 5509 5512 5515 5518 5520 5523 5527 5529 5532 5534 5537 5540 5542 5544 5547 5549 5550 5552 5553 5554 5555 5556 5557 5556 5557 5557 5556 5556 5555 5554 5552 5551 5549 5547 5544 5541 5538 5535 5531 5527 5524 5520 5516 5512 5507 5502 5496 5490 5484 5477 5471 5465
5499 5501 5504 5507 5510 5514 5516 5519 5522 5523 5526 5529 5531 5533 5535 5536 5538 5540 5541 5542 5543 5544 5545 5545 5545 5546 5546 5545 5544 5543 5542 5541 5539 5537 5535 5532 5529 5526 5524 5520 5517 5514 5510 5505 5501 5496 5491 5485 5479 5474 5467 5461 5455 5450
5495 5497 5499 5502 5505 5507 5509 5513 5516 5517 5518 5521 5522 5524 5526 5527 5529 5530 5531 5532 5532 5533 5533 5533 5533 5533 5533 5532 5530 5529 5527 5526 5525 5523 5521 5518 5516 5513 5510 5506 5502 5498 5494 5489 5484 5479 5474 5469 5463 5457 5452 5447 5441 5435
5492 5492 5495 5496 5498 5500 5502 5503 5505 5507 5509 5511 5512 5514 5515 5516 5517 5518 5519 5519 5519 5519 5520 5520 5520 5520 5519 5519 5518 5517 5515 5513 5512 5510 5507 5504 5501 5498 5494 5490 5485 5481 5477 5472 5467 5462 5457 5452 5448 5443 5438 5432 5426 5420
5491 5492 5493 5494 5495 5497 5498 5499 5500 5501 5503 5504 5505 5505 5506 5507 5508 5509 5509 5510 5509 5510 5510 5509 5509 5508 5508 5507 5505 5504 5502 5500 5497 5494 5491 5487 5484 5481 5477 5473 5468 5464 5460 5455 5451 5447 5443 5438 5433 5428 5423 5418 5411 5404
5492 5492 5492 5492 5494 5494 5496 5496 5496 5497 5498 5498 5499 5500 5500 5500 5501 5501 5501 5501 5501 5500 5500 5499 5497 5496 5495 5493 5491 5489 5486 5483 5480 5477 5473 5469 5465 5461 5457 5454 5451 5448 5445 5441 5437 5433 5429 5424 5419 5414 5408 5402 5395 5388
5490 5490 5489 5489 5489 5489 5490 5490 5490 5491 5491 5491 5492 5492 5492 5491 5490 5490 5490 5490 5489 5487 5486 5485 5483 5481 5479 5477 5474 5471 5468 5465 5463 5459 5457 5455 5452 5449 5445 5442 5439 5436 5432 5428 5423 5419 5414 5409 5404 5398 5392 5385 5378 5371
5487 5486 5485 5483 5482 5482 5481 5481 5481 5481 5481 5481 5481 5481 5480 5479 5478 5478 5477 5475 5473 5472 5470 5468 5465 5463 5461 5458 5456 5453 5450 5447 5446 5445 5444 5442 5440 5437 5434 5431 5427 5422 5418 5414 5409 5404 5399 5393 5386 5380 5374 5367 5360 5352
5478 5477 5477 5475 5474 5474 5472 5471 5471 5471 5471 5471 5470 5469 5468 5467 5465 5464 5462 5460 5458 5456 5454 5452 5450 5448 5445 5443 5441 5439 5438 5437 5436 5435 5433 5431 5428 5424 5420 5416 5413 5409 5403 5398 5393 5387 5381 5375 5368 5362 5355 5348 5341 5334
5468 5467 5466 5465 5465 5464 5463 5462 5461 5461 5460 5459 5458 5458 5456 5456 5455 5454 5452 5450 5449 5447 5446 5444 5442 5440 5438 5436 5434 5432 5430 5428 5425 5423 5420 5417 5414 5410 5406 5402 5398 5393 5388 5383 5377 5371 5364 5357 5350 5344 5337 5330 5323 5317
5460 5459 5458 5457 5456 5456 5455 5455 5454 5454 5453 5452 5452 5451 5450 5449 5448 5447 5445 5443 5442 5440 5438 5436 5434 5431 5429 5427 5424 5422 5419 5416 5413 5410 5406 5403 5399 5395 5391 5386 5382 5376 5371 5366 5360 5354 5347 5340 5333 5327 5321 5314 5308 5302
5454 5453 5453 5453 5452 5452 5451 5450 5450 5449 5448 5447 5446 5444 5443 5442 5440 5438 5437 5435 5432 5430 5427 5425 5423 5420 5417 5415 5412 5409 5406 5402 5399 5395 5392 5388 5384 5381 5375 5371 5365 5360 5354 5348 5341 5335 5329 5322 5316 5310 5304 5299 5293 5288
5450 5450 5450 5449 5448 5447 5446 5445 5444 5442 5440 5439 5438 5436 5434 5431 5429 5427 5425 5422 5420 5417 5415 5412 5409 5407 5404 5401 5398 5394 5391 5387 5384 5381 5377 5372 5368 5363 5358 5353 5347 5341 5334 5327 5320 5314 5309 5304 5298 5294 5289 5283 5278 5274
5446 5445 5444 5443 5441 5440 5438 5436 5434 5432 5430 5428 5425 5423 5421 5419 5416 5414 5411 5409 5406 5404 5401 5398 5394 5392 5389 5386 5383 5380 5377 5373 5369 5364 5360 5355 5350 5344 5338 5333 5326 5319 5313 5306 5299 5294 5288 5284 5280 5275 5272 5268 5264 5260
5440 5438 5436 5434 5433 5430 5428 5425 5423 5421 5418 5416 5413 5411 5408 5406 5404 5402 5399 5397 5394 5391 5388 5385 5382 5379 5376 5373 5369 5365 5361 5356 5352 5347 5341 5335 5329 5323 5318 5312 5306 5300 5294 5288 5283 5277 5272 5268 5264 5260 5257 5253 5250 5246
5432 5430 5427 5425 5423 5420 5417 5414 5411 5409 5406 5403 5401 5398 5396 5394 5392 5391 5389 5386 5384 5381 5378 5374 5370 5366 5362 5357 5352 5348 5342 5337 5331 5326 5320 5315 5309 5303 5298 5293 5289 5285 5280 5275 5270 5265 5260 5256 5252 5248 5245 5241 5238 5234